Location: Veyrier
(46.1830°N, 6.2000°E)
Time: 07:24:31
(UTC+02:00)

Daily predictions for brighter satellites

Satellite Brightness Start Highest point End
(mag) Time Altitude Azimuth Time Altitude Azimuth Time Altitude Azimuth
USA 238 DEB 3.9 21:56:56 10° NW 22:04:06 85° NE 22:11:22 10° SE
USA 238 3.9 21:57:03 10° NW 22:04:13 84° NE 22:11:28 10° SE
SL-08 RB Rocket 4.0 22:01:54 10° SSE 22:06:27 56° ENE 22:11:03 10° N
APEX 3.9 22:06:38 10° N 22:09:29 33° ENE 22:12:50 10° SE
Helios 1B rocket 4.4 22:09:06 10° ENE 22:10:54 13° E 22:12:41 10° ESE
Cosmos 1553 Rocket 4.4 22:06:24 10° SSE 22:12:06 45° E 22:17:50 10° NNE
Spot 2 Rocket 4.3 22:07:56 10° S 22:12:51 52° W 22:17:50 10° NNW
NOSS 3-2 (A) 4.2 22:07:43 10° NW 22:15:08 71° NE 22:23:18 10° SE
Helios 1A 4.2 22:11:57 10° SE 22:15:33 29° ENE 22:19:11 10° N
Cosmos 1238 Rocket 2.4 22:15:30 10° SSW 22:18:26 71° W 22:21:37 10° N
Cosmos 1674 2.8 22:15:28 10° S 22:19:12 58° E 22:23:00 10° NNE
ARGOS 3.3 22:14:33 10° SSE 22:19:59 87° WSW 22:25:28 10° NNW
SPOT 5 3.7 22:18:20 10° SE 22:23:10 43° ENE 22:28:10 10° N
Cosmos 1300 4.0 22:20:00 10° NNE 22:23:14 25° ENE 22:26:22 10° SE
Cosmos 2278 Rocket 3.0 22:18:38 10° SSE 22:23:29 30° ESE 22:28:22 10° NE
Cosmos 1726 2.4 22:19:58 10° N 22:23:41 55° ENE 22:27:22 10° SSE
Cosmos 1842 Rocket 4.1 22:19:53 10° N 22:24:02 43° ENE 22:28:12 10° SSE
MetOp-A 4.2 22:19:08 10° SSE 22:24:29 83° WSW 22:29:53 10° NNW
Lacrosse 5 2.5 22:22:33 10° WSW 22:27:34 61° NW 22:32:35 10° NE
ERS-2 4.2 22:25:32 10° SSW 22:28:35 24° W 22:31:38 10° NW
Cosmos 1110 Rocket 4.2 22:25:33 10° NNW 22:30:43 70° WSW 22:35:51 10° S
ATLAS 2AS CENTAUR R/B 3.2 22:25:23 10° SW 22:33:17 88° NW 22:41:29 10° NE
Cosmos 1844 Rocket 3.0 22:32:21 10° SSW 22:38:00 74° WNW 22:43:41 10° NNE
RESURS DK-1 4.4 22:40:21 11° ESE 22:41:15 11° E 22:42:32 10° E
NOSS 3-2 (C) 4.2 22:34:05 10° NW 22:41:32 74° NE 22:49:07 13° SE
COSMOS 2406 3.5 22:35:48 10° NNW 22:41:34 70° WSW 22:47:10 10° SSE
Cosmos 1331 Rocket 4.4 22:37:13 10° NNW 22:42:21 62° WSW 22:47:31 10° S
Cosmos 494 Rocket 4.1 22:39:45 10° SSW 22:45:00 82° WNW 22:50:19 10° NNE
Cosmos 1844 3.9 22:41:11 10° SSW 22:46:54 81° WNW 22:52:43 10° NNE
Cosmos 2221 3.1 22:46:25 10° N 22:50:34 43° ENE 22:53:42 16° SE
SPOT 1/Viking Rocket 3.6 22:47:08 13° SSE 22:51:45 71° ENE 22:56:54 10° N
H-2A R/B 2.7 22:46:33 10° S 22:51:47 57° W 22:57:09 10° NNW
Cosmos 921 Rocket 4.4 22:49:28 10° NW 22:53:35 36° W 22:57:42 10° SSW
ATLAS 5 CENTAUR R/B 2.6 22:49:55 10° S 22:53:45 28° ESE 22:57:54 10° ENE
Landsat 7 4.0 22:50:10 14° SSE 22:54:08 61° ENE 22:58:50 10° N
USA 215 4.4 22:52:34 10° S 22:58:15 31° SW 23:03:57 10° WNW
Meteor 2-13 Rocket 4.4 22:52:50 10° N 22:58:57 84° E 23:04:31 13° S
Resurs 01 Rocket 4.4 22:58:44 10° WSW 23:00:28 12° W 23:02:13 10° WNW
Cosmos 1461 3.2 22:58:42 10° SSW 23:03:17 62° ESE 23:08:01 10° NE
CENTAUR R/B 3.5 22:56:27 10° NW 23:04:08 59° NE 23:11:48 13° ESE
Cosmos 1745 Rocket 4.1 22:58:30 10° N 23:04:51 82° W 23:10:46 12° S
NOSS 2-2 (E) 3.9 23:04:21 11° S 23:07:43 37° ESE 23:11:48 10° NE
SL-27 R/B 3.9 23:04:48 10° N 23:07:59 27° ENE 23:10:03 17° ESE
Cosmos 1833 Rocket 3.1 23:02:31 10° NNW 23:08:03 53° ENE 23:12:13 17° SE
Cosmos 2082 Rocket 2.8 23:03:25 10° NNW 23:08:59 49° ENE 23:13:15 17° SE
NOSS 3-4 (A) 3.5 23:04:36 10° SSW 23:10:38 61° ESE 23:16:58 10° NE
NOSS 3-4 (C) 3.5 23:04:41 10° SSW 23:10:42 60° ESE 23:17:03 10° NE
ERS-1 Rocket 3.7 23:06:51 10° S 23:11:43 49° W 23:16:37 10° NNW
Cosmos 1302 Rocket 4.4 23:06:45 10° NNW 23:11:59 62° WSW 23:16:15 15° S
CZ-2C R/B 3.6 23:08:47 10° NNE 23:13:29 30° E 23:16:16 19° SE
Terra 2.0 23:10:13 19° SSE 23:13:35 62° ENE 23:18:18 10° N
IGS 5A 3.4 23:14:30 20° SSE 23:17:16 77° ENE 23:21:27 10° N
SL-14 R/B 3.2 23:14:25 13° S 23:17:48 87° W 23:21:46 10° N
DMSP B5D2-2 4.3 23:14:47 10° N 23:20:02 72° WNW 23:25:13 10° SSW
SL-8 R/B 3.8 23:15:11 10° WSW 23:20:02 80° NNW 23:24:54 10° ENE
Cosmos 1992 Rocket 4.1 23:21:45 10° NNW 23:26:58 67° ENE 23:30:15 23° SE
Cosmos 1626 2.1 23:26:40 25° S 23:28:40 63° E 23:32:23 10° NNE
Cosmos 2251 Rocket 3.9 23:24:00 10° SSW 23:29:19 68° WNW 23:34:38 10° NNE
CARTOSAT-1 3.7 23:32:18 22° S 23:35:02 71° WSW 23:39:23 10° NNW
Cosmos 1709 Rocket 4.0 23:31:47 10° N 23:38:03 89° W 23:42:23 21° S
NOSS 2-2 (D) 3.3 23:35:30 14° SSW 23:38:41 62° SE 23:43:04 10° NE
Cosmos 1703 3.8 23:41:19 30° SE 23:42:39 42° E 23:46:21 10° NNE
Cosmos 1076 Rocket 3.4 23:40:04 23° S 23:42:42 86° E 23:46:58 10° N
Spot 4 4.3 23:43:29 25° SE 23:46:07 50° ENE 23:50:49 10° N
Helios 1B rocket 2.8 23:42:31 10° N 23:46:36 63° WNW 23:49:50 15° SSW
Meteor 2-19 Rocket 4.4 23:41:12 10° N 23:47:24 80° E 23:51:16 24° SSE
ATLAS 3B R/B 3.8 23:42:38 10° NW 23:48:15 30° WSW 23:52:39 15° SSW
BREEZE-M DEB (TANK) 2.9 23:43:29 10° W 23:48:51 61° NNW 23:51:16 10° ENE
Mayak 0.7 23:48:14 10° ENE 23:50:29 14° E 23:51:01 14° E
Cosmos 2074 Rocket 4.4 23:46:21 10° N 23:52:29 52° ENE 23:56:05 25° SE
